Вернуться в каталог

Sitro-AIS-62

АктивенСвязьSSO
NORAD 67296·PAYLOAD·🇷🇺 Russia

Запущен Dec 28, 2025 с Vostochny Cosmodrome

Loading…

Ближайшие Пролёты (ближайшие 24 часа)

TLE

СвежийSource: Space-Track

Эпоха: Sep 14, 2026, 12:17 UTC

1 67296U 25313BA  26257.51197695  .00007870  00000-0  30240-3 0  9993
2 67296  97.3874 331.6297 0009286  49.4668 310.7378 15.26666402 39608

Отслеживайте Sitro-AIS-62 в реальном времени с AllMySat

Download on the App Store